Location: San Vito
(41.8833°N, 12.9833°E)
Time: 07:22:17
(UTC+00:00)

Cosmos 1408 - Pass Details

Date: 17 November 2019
Orbit: 470 x 496 km, 82.6° (Epoch: 13 December)

Event Time Altitude Azimuth Distance (km) Brightness Sun altitude
Rises 05:06:08 0° 210° (SSW) 2,565 6.1 -10.1°
Reaches altitude 10° 05:08:26 10° 222° (SW) 1,685 5.1 -9.7°
Maximum altitude 05:11:40 29° 283° (WNW) 934 3.4 -9.1°
Drops below altitude 10° 05:14:56 10° 345° (NNW) 1,686 5.0 -8.6°
Sets 05:17:14 0° 357° (N) 2,568 6.0 -8.2°
